Location: Düngen
(52.0952°N, 10.0219°E)
Time: 16:06:19
(UTC+00:00)

CSL-04 Debris - Pass Details

Date: 11 March 2026
Orbit: 819 x 839 km, 98.7° (Epoch: 14 April)

Event Time Altitude Azimuth Distance (km) Brightness Sun altitude
Exits shadow 18:16:54 - 144° (SE) 3,323 6.9 -10.0°
Reaches altitude 10° 18:19:13 10° 139° (SE) 2,425 6.1 -10.3°
Maximum altitude 18:24:22 49° 66° (ENE) 1,057 4.4 -11.1°
Drops below altitude 10° 18:29:31 10° 353° (N) 2,431 6.8 -11.9°
Sets 18:31:56 0° 348° (NNW) 3,366 7.6 -12.2°
